Date String (YYYY-MM-DD hh:mm:ss) UTC,Instrument flags,Ambient pressure (hPa),Sample flow (lpm),Bypass flow (lpm),Sample temperature (°C),Ambient temperature (°C),ASC tube jacket temperature (°C),LED temperature (°C),Box temperature (°C),Sample RH (%),Span deviation,Mass concentration (μg/m³),Mass concentration (μg/m³),Mass concentration (μg/m³)
DateTimeUTC,F1_M11,P_M11,Q1_M11,Q2_M11,T1_M11,T2_M11,T3_M11,T4_M11,T5_M11,U1_M11,ZSPAN_M11,X2_M11,X0_M11,X1_M11
2023-04-08 05:00:00,,0830.0,5.00,0.00,24.6,22.9,00.0,32.9,26.1,10.6,0000.0,0003.84,0009.28,0002.79
2023-04-08 05:01:00,,0830.0,5.00,0.00,24.6,22.9,00.0,32.9,26.1,10.3,0000.0,0003.78,0009.28,0002.69
2023-04-08 05:02:00,,0830.0,5.00,0.00,24.6,22.9,00.0,32.9,26.1,10.1,0000.0,0003.67,0009.06,0002.55
2023-04-08 05:03:00,,0830.0,5.00,0.00,24.6,22.9,00.0,33.0,26.1,10.1,0000.0,0003.57,0009.00,0002.43
2023-04-08 05:04:00,,0830.0,5.00,0.00,24.6,22.9,00.0,32.9,26.1,10.3,0000.0,0003.47,0008.31,0002.32
2023-04-08 05:05:00,,0830.0,5.01,0.00,24.6,22.9,00.0,32.9,26.1,10.2,0000.0,0003.35,0007.99,0002.23
2023-04-08 05:06:00,,0830.0,5.01,0.00,24.6,22.8,00.0,32.9,26.1,10.2,0000.0,0003.34,0008.08,0002.16
2023-04-08 05:07:00,,0830.0,5.00,0.00,24.5,22.8,00.0,32.9,26.0,10.2,0000.0,0003.34,0008.38,0002.10
2023-04-08 05:08:00,,0829.9,5.00,0.00,24.5,22.8,00.0,32.9,26.0,10.1,0000.0,0003.32,0008.64,0002.03
2023-04-08 05:09:00,,0829.9,5.00,0.00,24.5,22.7,00.0,32.9,25.9,10.1,0000.0,0003.31,0008.60,0002.00
2023-04-08 05:10:00,,0829.8,5.00,0.00,24.5,22.7,00.0,32.9,25.9,10.1,0000.0,0003.25,0008.35,0001.96
2023-04-08 05:11:00,,0829.8,4.99,0.00,24.4,22.6,00.0,32.9,25.9,10.0,0000.0,0003.22,0007.75,0001.92
2023-04-08 05:12:00,,0829.8,5.00,0.00,24.4,22.6,00.0,32.9,25.9,09.9,0000.0,0003.16,0007.25,0001.90
2023-04-08 05:13:00,,0829.8,5.00,0.00,24.4,22.6,00.0,32.9,25.9,09.9,0000.0,0003.17,0007.84,0001.89
2023-04-08 05:14:00,,0829.8,5.00,0.00,24.4,22.5,00.0,32.8,25.9,10.0,0000.0,0003.19,0007.96,0001.90
2023-04-08 05:15:00,,0829.8,5.00,0.00,24.3,22.5,00.0,32.8,25.7,10.1,0000.0,0003.18,0007.95,0001.90
2023-04-08 05:16:00,,0829.8,5.01,0.00,24.3,22.4,00.0,32.8,25.7,10.1,0000.0,0003.20,0008.14,0001.90
2023-04-08 05:17:00,,0829.8,5.00,0.00,24.2,22.4,00.0,32.8,25.6,09.9,0000.0,0003.18,0008.80,0001.88
2023-04-08 05:18:00,,0829.8,4.99,0.00,24.2,22.4,00.0,32.8,25.6,09.7,0000.0,0003.12,0008.66,0001.85
2023-04-08 05:19:00,,0829.8,5.01,0.00,24.2,22.4,00.0,32.7,25.6,09.7,0000.0,0003.09,0008.68,0001.83
2023-04-08 05:20:00,,0829.8,5.01,0.00,24.2,22.3,00.0,32.7,25.6,09.7,0000.0,0003.11,0008.82,0001.82
2023-04-08 05:21:00,,0829.7,4.99,0.00,24.1,22.3,00.0,32.7,25.6,09.7,0000.0,0003.13,0008.94,0001.80
2023-04-08 05:22:00,,0829.8,4.99,0.00,24.1,22.3,00.0,32.7,25.6,09.8,0000.0,0003.12,0009.03,0001.78
2023-04-08 05:23:00,,0829.7,5.01,0.00,24.1,22.3,00.0,32.7,25.6,09.7,0000.0,0003.12,0009.29,0001.77
2023-04-08 05:24:00,,0829.8,5.02,0.00,24.1,22.3,00.0,32.6,25.5,10.0,0000.0,0003.10,0008.99,0001.76
2023-04-08 05:25:00,,0829.7,5.01,0.00,24.1,22.3,00.0,32.6,25.6,10.1,0000.0,0003.14,0009.35,0001.77
2023-04-08 05:26:00,,0829.7,5.00,0.00,24.1,22.3,00.0,32.6,25.5,10.0,0000.0,0003.18,0009.74,0001.78
2023-04-08 05:27:00,,0829.7,5.00,0.00,24.1,22.3,00.0,32.6,25.5,10.1,0000.0,0003.19,0009.59,0001.77
2023-04-08 05:28:00,,0829.7,4.99,0.00,24.0,22.2,00.0,32.6,25.5,10.0,0000.0,0003.20,0008.82,0001.77
2023-04-08 05:29:00,,0829.7,5.00,0.00,24.0,22.2,00.0,32.5,25.5,10.1,0000.0,0003.18,0008.52,0001.76
2023-04-08 05:30:00,,0829.7,5.00,0.00,24.0,22.2,00.0,32.5,25.5,10.1,0000.0,0003.19,0008.25,0001.76
2023-04-08 05:31:00,,0829.7,5.00,0.00,24.0,22.2,00.0,32.5,25.5,10.0,0000.0,0003.20,0008.63,0001.77
2023-04-08 05:32:00,,0829.7,5.00,0.00,24.0,22.1,00.0,32.5,25.5,10.1,0000.0,0003.26,0009.17,0001.79
2023-04-08 05:33:00,,0829.7,5.01,0.00,23.9,22.1,00.0,32.5,25.4,10.0,0000.0,0003.28,0009.55,0001.80
2023-04-08 05:34:00,,0829.7,5.00,0.00,23.9,22.1,00.0,32.5,25.4,10.0,0000.0,0003.31,0010.06,0001.81
2023-04-08 05:35:00,,0829.7,5.00,0.00,23.9,22.0,00.0,32.4,25.3,10.0,0000.0,0003.32,0009.94,0001.81
2023-04-08 05:36:00,,0829.7,5.00,0.00,23.9,22.0,00.0,32.4,25.3,09.9,0000.0,0003.27,0009.88,0001.79
2023-04-08 05:37:00,,0829.6,5.00,0.00,23.8,22.0,00.0,32.4,25.3,10.0,0000.0,0003.25,0009.52,0001.78
2023-04-08 05:38:00,,0829.7,5.01,0.00,23.8,22.0,00.0,32.4,25.3,10.0,0000.0,0003.27,0009.72,0001.77
2023-04-08 05:39:00,,0829.6,5.00,0.00,23.8,22.0,00.0,32.4,25.3,10.1,0000.0,0003.30,0009.91,0001.77
2023-04-08 05:40:00,,0829.7,4.99,0.00,23.8,22.0,00.0,32.3,25.3,10.2,0000.0,0003.32,0010.00,0001.78
2023-04-08 05:41:00,,0829.6,4.99,0.00,23.8,22.0,00.0,32.3,25.3,10.2,0000.0,0003.31,0010.49,0001.79
2023-04-08 05:42:00,,0829.7,5.01,0.00,23.8,22.0,00.0,32.3,25.2,10.3,0000.0,0003.30,0010.63,0001.78
2023-04-08 05:43:00,,0829.6,5.00,0.00,23.7,21.9,00.0,32.3,25.2,10.4,0000.0,0003.25,0010.01,0001.77
2023-04-08 05:44:00,,0829.5,4.99,0.00,23.7,21.9,00.0,32.3,25.2,10.4,0000.0,0003.23,0010.02,0001.77
2023-04-08 05:45:00,,0829.5,5.00,0.00,23.7,21.9,00.0,32.2,25.2,10.4,0000.0,0003.24,0009.25,0001.76
2023-04-08 05:46:00,,0829.5,5.02,0.00,23.7,21.9,00.0,32.2,25.2,10.4,0000.0,0003.24,0009.15,0001.77
2023-04-08 05:47:00,,0829.5,5.00,0.00,23.7,21.9,00.0,32.2,25.2,10.2,0000.0,0003.22,0008.70,0001.78
2023-04-08 05:48:00,,0829.4,4.99,0.00,23.7,21.9,00.0,32.2,25.1,10.4,0000.0,0003.22,0008.58,0001.78
2023-04-08 05:49:00,,0829.5,5.01,0.00,23.7,21.9,00.0,32.2,25.1,10.4,0000.0,0003.23,0008.57,0001.79
2023-04-08 05:50:00,,0829.4,5.01,0.00,23.7,21.9,00.0,32.2,25.1,10.4,0000.0,0003.17,0008.60,0001.77
2023-04-08 05:51:00,,0829.5,5.00,0.00,23.7,21.9,00.0,32.2,25.2,10.3,0000.0,0003.15,0008.78,0001.76
2023-04-08 05:52:00,,0829.5,5.00,0.00,23.6,21.8,00.0,32.1,25.1,10.3,0000.0,0003.13,0008.41,0001.76
2023-04-08 05:53:00,,0829.5,5.01,0.00,23.6,21.8,00.0,32.1,25.1,10.2,0000.0,0003.06,0008.20,0001.74
2023-04-08 05:54:00,,0829.4,5.00,0.00,23.6,21.7,00.0,32.1,25.0,10.3,0000.0,0003.05,0008.06,0001.72
2023-04-08 05:55:00,,0829.5,5.00,0.00,23.5,21.7,00.0,32.1,25.0,10.4,0000.0,0003.07,0007.86,0001.73
2023-04-08 05:56:00,,0829.4,4.98,0.00,23.5,21.6,00.0,32.1,24.9,10.4,0000.0,0003.09,0007.98,0001.74
2023-04-08 05:57:00,,0829.4,5.00,0.00,23.5,21.6,00.0,32.0,24.9,10.3,0000.0,0003.07,0007.96,0001.73
2023-04-08 05:58:00,,0829.3,5.00,0.00,23.5,21.6,00.0,32.0,25.0,10.3,0000.0,0003.13,0008.03,0001.75
2023-04-08 05:59:00,,0829.4,5.01,0.00,23.5,21.6,00.0,32.0,24.9,10.3,0000.0,0003.14,0008.02,0001.74
